Buena Park, CA

7:00 AM PDT on August 27, 2016 (GMT -0700)
Fullerton Municipal

Weather History for KFUL - August, 2014

Change the Weather History Date:

Tuesday, August 12, 2014

  Actual Average Record
Temperature  
Mean Temperature 78 °F 75 °F  
Max Temperature 87 °F 85 °F 103 °F (2012)
Min Temperature 69 °F 65 °F 56 °F (2010)
Degree Days  
Heating Degree Days 0 0  
Month to date heating degree days 0 0  
Since 1 June heating degree days 0 2  
Since 1 July heating degree days 0 0  
Cooling Degree Days 13 10  
Month to date cooling degree days 143 120  
Year to date cooling degree days 1113 662  
Since 1 June cooling degree days 755 539  
Growing Degree Days 26 (Base 50)    
Moisture  
Dew Point 62 °F    
Average Humidity 61    
Maximum Humidity 78    
Minimum Humidity 43    
Precipitation  
Precipitation 0.00 in 0.00 in 0.36 in (1972)
Month to date precipitation 0.10 0.02  
Year to date precipitation 3.56 9.71  
Since 1 July precipitation 0.10  
Snow  
Snow 0.00 in - - ()
Month to date snowfall 0.0  
Year to date snowfall 0.0  
Snow Depth 0.00 in    
Sea Level Pressure  
Sea Level Pressure 29.93 in    
Wind  
Wind Speed 4 mph (WSW)    
Max Wind Speed 13 mph    
Max Gust Speed 17 mph    
Visibility 10 miles    
Events      
T = Trace of Precipitation, MM = Missing Value Source: NWS Daily Summary

Daily Weather History Graph

Daily Weather History Graph

Search for Another Location

Airport or City:

Trip Planner

Search our weather history database for the weather conditions in past years. The results will help you decide how hot, cold, wet, or windy it might be!

Date:

Astronomy

Aug. 12, 2014 Rise Set
Actual Time 6:11 AM PDT 7:41 PM PDT
Civil Twilight 5:45 AM PDT 8:08 PM PDT
Nautical Twilight 5:13 AM PDT 8:40 PM PDT
Astronomical Twilight 4:39 AM PDT 9:13 PM PDT
Moon 9:02 PM PDT (8/12) 8:25 AM PDT (8/12)
Length of Visible Light 14h 23m
Length of Day
13h 30m
Waning Gibbous, 94% of the Moon is Illuminated
Aug 12
Waning Gibbous
Aug 17
Last Quarter
Aug 25
New
Sep 2
First Quarter
Sep 8
Full

Hourly Weather History & Observations

Time (PDT) Temp. Heat Index Dew Point Humidity Pressure Visibility Wind Dir Wind Speed Gust Speed Precip Events Conditions
12:53 AM 71.1 °F - 63.0 °F 75% 29.94 in 10.0 mi Calm Calm - N/A   Partly Cloudy
2:53 AM 70.0 °F - 62.1 °F 76% 29.94 in 10.0 mi Calm Calm - N/A   Clear
3:53 AM 69.1 °F - 62.1 °F 78% 29.94 in 10.0 mi Calm Calm - N/A   Scattered Clouds
4:53 AM 69.1 °F - 62.1 °F 78% 29.93 in 10.0 mi Calm Calm - N/A   Scattered Clouds
5:53 AM 69.1 °F - 62.1 °F 78% 29.95 in 10.0 mi Calm Calm - N/A   Clear
6:53 AM 70.0 °F - 63.0 °F 78% 29.96 in 10.0 mi Calm Calm - N/A   Partly Cloudy
7:53 AM 72.0 °F - 63.0 °F 73% 29.97 in 10.0 mi Calm Calm - N/A   Partly Cloudy
8:18 AM 73.0 °F - 63.0 °F 71% 29.97 in 10.0 mi Calm Calm - N/A   Mostly Cloudy
8:43 AM 73.0 °F - 63.0 °F 71% 29.97 in 10.0 mi South 3.5 mph - N/A   Scattered Clouds
8:53 AM 73.9 °F - 63.0 °F 68% 29.97 in 10.0 mi Variable 3.5 mph - N/A   Partly Cloudy
10:53 AM 81.0 °F 82.2 °F 63.0 °F 54% 29.96 in 10.0 mi West 4.6 mph - N/A   Clear
11:53 AM 84.0 °F 84.5 °F 62.1 °F 47% 29.94 in 10.0 mi Variable 5.8 mph - N/A   Clear
12:53 PM 84.9 °F 85.4 °F 62.1 °F 46% 29.92 in 10.0 mi SSW 8.1 mph - N/A   Clear
1:53 PM 84.0 °F 84.5 °F 62.1 °F 47% 29.91 in 10.0 mi South 8.1 mph - N/A   Clear
2:53 PM 82.9 °F 83.7 °F 62.1 °F 49% 29.90 in 10.0 mi SSW 10.4 mph - N/A   Clear
3:53 PM 84.9 °F 85.0 °F 61.0 °F 44% 29.88 in 10.0 mi South 9.2 mph - N/A   Clear
4:53 PM 84.9 °F 84.4 °F 59.0 °F 41% 29.87 in 10.0 mi West 6.9 mph - N/A   Clear
5:53 PM 82.0 °F 82.7 °F 61.0 °F 49% 29.88 in 10.0 mi West 5.8 mph - N/A   Clear
6:53 PM 78.1 °F - 61.0 °F 56% 29.88 in 10.0 mi Variable 5.8 mph - N/A   Clear
7:53 PM 75.0 °F - 61.0 °F 62% 29.90 in 10.0 mi West 4.6 mph - N/A   Clear
8:53 PM 73.0 °F - 61.0 °F 66% 29.93 in 10.0 mi West 5.8 mph - N/A   Clear
9:53 PM 72.0 °F - 62.1 °F 71% 29.95 in 10.0 mi West 3.5 mph - N/A   Clear
11:53 PM 71.1 °F - 62.1 °F 73% 29.94 in 10.0 mi Calm Calm - N/A   Clear